When you browse on this site, cookies collect data to enhance your experience and personalize the content and advertising you see.
Visit our Privacy Policy to learn more. By continuing to use the site, you agree to this use of cookies and data.
  • In Hungary
  • List of Countries
  • For 7 days
  • Water Temperature
  • Satellite Maps
  • Weather Map
  • News
  • Weather Widgets
  • user-avatar
    Login

    Hourly Weather Chengam

    Today, 18 January, Friday

    Time Temperature Precipitation Wind Pressure Humidity
    00:00 +21°C° 0 mm 1 mps 737 mmHg 94%
    01:00 +21°C° 0 mm 1 mps 736 mmHg 95%
    02:00 +20°C° 0 mm 1 mps 736 mmHg 95%
    03:00 +20°C° 0 mm 1 mps 736 mmHg 95%
    04:00 +20°C° 0 mm 1 mps 736 mmHg 95%
    05:00 +20°C° 0 mm 1 mps 736 mmHg 95%
    06:00 +21°C° 0 mm 1 mps 737 mmHg 90%
    07:00 +22°C° 0 mm 1 mps 737 mmHg 85%
    08:00 +23°C° 0 mm 1 mps 738 mmHg 80%
    09:00 +25°C° 0 mm 2 mps 738 mmHg 68%
    10:00 +27°C° 0 mm 2 mps 738 mmHg 55%
    11:00 +29°C° 0 mm 3 mps 738 mmHg 43%
    12:00 +30°C° 0 mm 3 mps 737 mmHg 40%
    13:00 +32°C° 0 mm 4 mps 736 mmHg 37%
    14:00 +33°C° 0 mm 4 mps 736 mmHg 35%
    15:00 +32°C° 0 mm 4 mps 736 mmHg 38%
    16:00 +30°C° 0 mm 4 mps 736 mmHg 42%
    17:00 +29°C° 0 mm 4 mps 735 mmHg 46%
    18:00 +27°C° 0 mm 3 mps 736 mmHg 55%
    19:00 +25°C° 0 mm 3 mps 736 mmHg 64%
    20:00 +23°C° 0 mm 2 mps 737 mmHg 73%
    21:00 +21°C° 0 mm 2 mps 737 mmHg 78%
    22:00 +21°C° 0 mm 1 mps 737 mmHg 83%
    23:00 +21°C° 0 mm 1 mps 737 mmHg 88%

    Tomorrow, 19 January, Saturday

    Time Temperature Precipitation Wind Pressure Humidity
    00:00 +20°C° 0 mm 1 mps 737 mmHg 90%
    01:00 +20°C° 0 mm 1 mps 736 mmHg 91%
    02:00 +20°C° 0 mm 1 mps 736 mmHg 93%
    03:00 +19°C° 0 mm 1 mps 736 mmHg 93%
    04:00 +19°C° 0 mm 1 mps 736 mmHg 94%
    05:00 +19°C° 0 mm 1 mps 736 mmHg 94%
    06:00 +20°C° 0 mm 1 mps 737 mmHg 88%
    07:00 +22°C° 0 mm 1 mps 737 mmHg 82%
    08:00 +23°C° 0 mm 1 mps 738 mmHg 76%
    09:00 +25°C° 0 mm 2 mps 738 mmHg 63%
    10:00 +27°C° 0 mm 3 mps 738 mmHg 51%
    11:00 +30°C° 0 mm 4 mps 738 mmHg 39%
    12:00 +30°C° 0 mm 4 mps 737 mmHg 37%
    13:00 +32°C° 0 mm 5 mps 736 mmHg 35%
    14:00 +33°C° 0 mm 5 mps 736 mmHg 33%
    15:00 +32°C° 0 mm 5 mps 736 mmHg 36%
    16:00 +30°C° 0 mm 4 mps 736 mmHg 39%
    17:00 +29°C° 0 mm 4 mps 736 mmHg 42%
    18:00 +27°C° 0 mm 3 mps 736 mmHg 49%
    19:00 +25°C° 0 mm 3 mps 737 mmHg 57%
    20:00 +23°C° 0 mm 2 mps 737 mmHg 65%
    21:00 +21°C° 0 mm 2 mps 737 mmHg 72%
    22:00 +21°C° 0 mm 1 mps 738 mmHg 79%
    23:00 +20°C° 0 mm 1 mps 738 mmHg 86%

    Day after tomorrow, 20 January, Sunday

    Time Temperature Precipitation Wind Pressure Humidity
    00:00 +20°C° 0 mm 1 mps 737 mmHg 88%
    01:00 +19°C° 0 mm 1 mps 737 mmHg 91%
    02:00 +17°C° 0 mm 0 mps 737 mmHg 93%
    03:00 +19°C° 0 mm 1 mps 737 mmHg 93%
    04:00 +19°C° 0 mm 1 mps 737 mmHg 93%
    05:00 +20°C° 0 mm 1 mps 737 mmHg 93%
    06:00 +21°C° 0 mm 1 mps 738 mmHg 87%
    07:00 +22°C° 0 mm 1 mps 739 mmHg 81%
    08:00 +23°C° 0 mm 1 mps 739 mmHg 75%
    09:00 +25°C° 0 mm 2 mps 739 mmHg 63%
    10:00 +27°C° 0 mm 2 mps 739 mmHg 51%
    11:00 +29°C° 0 mm 3 mps 739 mmHg 39%
    12:00 +30°C° 0 mm 3 mps 738 mmHg 36%
    13:00 +32°C° 0 mm 4 mps 737 mmHg 33%
    14:00 +33°C° 0 mm 4 mps 736 mmHg 30%
    15:00 +32°C° 0 mm 4 mps 736 mmHg 33%
    16:00 +30°C° 0 mm 3 mps 736 mmHg 36%
    17:00 +30°C° 0 mm 3 mps 736 mmHg 39%
    18:00 +28°C° 0 mm 3 mps 736 mmHg 44%
    19:00 +25°C° 0 mm 2 mps 737 mmHg 49%
    20:00 +23°C° 0 mm 2 mps 738 mmHg 54%
    21:00 +21°C° 0 mm 2 mps 738 mmHg 59%
    22:00 +20°C° 0 mm 2 mps 738 mmHg 65%
    23:00 +20°C° 0 mm 1 mps 738 mmHg 71%

    21 January, Monday

    Time Temperature Precipitation Wind Pressure Humidity
    00:00 +20°C° 0 mm 1 mps 737 mmHg 75%
    01:00 +19°C° 0 mm 1 mps 737 mmHg 79%
    02:00 +19°C° 0 mm 1 mps 737 mmHg 83%
    03:00 +19°C° 0 mm 1 mps 737 mmHg 84%
    04:00 +18°C° 0 mm 1 mps 737 mmHg 85%
    05:00 +18°C° 0 mm 1 mps 737 mmHg 87%
    06:00 +20°C° 0 mm 1 mps 737 mmHg 81%
    07:00 +21°C° 0 mm 1 mps 738 mmHg 75%
    08:00 +23°C° 0 mm 1 mps 738 mmHg 70%
    09:00 +25°C° 0 mm 2 mps 738 mmHg 58%
    10:00 +27°C° 0 mm 2 mps 738 mmHg 47%
    11:00 +29°C° 0 mm 3 mps 738 mmHg 36%
    12:00 +30°C° 0 mm 3 mps 737 mmHg 33%
    13:00 +31°C° 0 mm 3 mps 736 mmHg 30%
    14:00 +33°C° 0 mm 4 mps 735 mmHg 28%
    15:00 +31°C° 0 mm 3 mps 735 mmHg 32%
    16:00 +30°C° 0 mm 3 mps 735 mmHg 35%
    17:00 +29°C° 0 mm 3 mps 735 mmHg 39%
    18:00 +27°C° 0 mm 3 mps 736 mmHg 48%
    19:00 +25°C° 0 mm 2 mps 737 mmHg 57%
    20:00 +21°C° 0 mm 2 mps 737 mmHg 67%
    21:00 +22°C° 0 mm 1 mps 737 mmHg 73%
    22:00 +21°C° 0 mm 1 mps 737 mmHg 79%
    23:00 +20°C° 0 mm 1 mps 737 mmHg 85%

    22 January, Tuesday

    Time Temperature Precipitation Wind Pressure Humidity
    00:00 +20°C° 0 mm 1 mps 737 mmHg 88%
    01:00 +19°C° 0 mm 1 mps 736 mmHg 90%
    02:00 +19°C° 0 mm 1 mps 736 mmHg 92%
    03:00 +19°C° 0 mm 1 mps 736 mmHg 93%
    04:00 +18°C° 0 mm 1 mps 736 mmHg 93%
    05:00 +18°C° 0 mm 1 mps 736 mmHg 93%
    06:00 +20°C° 0 mm 1 mps 737 mmHg 88%
    07:00 +21°C° 0 mm 1 mps 737 mmHg 82%
    08:00 +22°C° 0 mm 1 mps 738 mmHg 76%
    09:00 +25°C° 0 mm 1 mps 738 mmHg 64%
    10:00 +27°C° 0 mm 1 mps 738 mmHg 52%
    11:00 +29°C° 0 mm 1 mps 738 mmHg 40%
    12:00 +30°C° 0 mm 1 mps 737 mmHg 36%
    13:00 +31°C° 0 mm 2 mps 736 mmHg 32%
    14:00 +32°C° 0 mm 2 mps 735 mmHg 28%
    15:00 +32°C° 0 mm 2 mps 735 mmHg 31%
    16:00 +31°C° 0 mm 2 mps 735 mmHg 33%
    17:00 +30°C° 0 mm 2 mps 735 mmHg 36%
    18:00 +28°C° 0 mm 2 mps 736 mmHg 48%
    19:00 +26°C° 0 mm 2 mps 736 mmHg 61%
    20:00 +24°C° 0 mm 2 mps 737 mmHg 73%
    21:00 +23°C° 0 mm 2 mps 737 mmHg 79%
    22:00 +22°C° 0 mm 1 mps 737 mmHg 86%
    23:00 +21°C° 0 mm 1 mps 737 mmHg 92%

    23 January, Wednesday

    Time Temperature Precipitation Wind Pressure Humidity
    00:00 +21°C° 0 mm 1 mps 737 mmHg 93%
    01:00 +21°C° 0 mm 1 mps 737 mmHg 93%
    02:00 +18°C° 0 mm 0 mps 736 mmHg 93%
    03:00 +18°C° 0 mm 0 mps 736 mmHg 93%
    04:00 +20°C° 0 mm 1 mps 736 mmHg 93%
    05:00 +20°C° 0 mm 1 mps 736 mmHg 94%
    06:00 +19°C° 0 mm 0 mps 737 mmHg 87%
    07:00 +21°C° 0 mm 0 mps 737 mmHg 81%
    08:00 +22°C° 0 mm 0 mps 738 mmHg 75%
    09:00 +26°C° 0 mm 1 mps 738 mmHg 64%
    10:00 +28°C° 0 mm 1 mps 738 mmHg 53%
    11:00 +31°C° 0 mm 2 mps 738 mmHg 41%
    12:00 +32°C° 0 mm 2 mps 737 mmHg 38%
    13:00 +32°C° 0 mm 2 mps 736 mmHg 34%
    14:00 +34°C° 0 mm 3 mps 735 mmHg 30%
    15:00 +33°C° 0 mm 3 mps 735 mmHg 33%
    16:00 +33°C° 0 mm 3 mps 735 mmHg 35%
    17:00 +31°C° 0 mm 3 mps 735 mmHg 38%
    18:00 +29°C° 0 mm 3 mps 736 mmHg 51%
    19:00 +26°C° 0 mm 3 mps 736 mmHg 64%
    20:00 +24°C° 0 mm 3 mps 737 mmHg 77%
    21:00 +23°C° 0 mm 2 mps 737 mmHg 82%
    22:00 +23°C° 0 mm 2 mps 737 mmHg 87%
    23:00 +22°C° 0 mm 1 mps 737 mmHg 92%
    Show more